Oneill, NE

1:12 PM CST on February 25, 2017 (GMT -0600)
The O'Neill Municipal-Baker

Weather History for KONL - November, 2015

Change the Weather History Date:

Sunday, November 1, 2015

  Actual Average Record
Temperature  
Mean Temperature 56 °F -  
Max Temperature 76 °F 52 °F 79 °F (1990)
Min Temperature 36 °F 30 °F 8 °F (2002)
Degree Days  
Heating Degree Days 9    
Growing Degree Days 6 (Base 50)    
Moisture  
Dew Point 38 °F    
Average Humidity 60    
Maximum Humidity 93    
Minimum Humidity 26    
Precipitation  
Precipitation 0.00 in - - ()
Sea Level Pressure  
Sea Level Pressure 29.77 in    
Wind  
Wind Speed 5 mph (SW)    
Max Wind Speed 17 mph    
Max Gust Speed 18 mph    
Visibility 10 miles    
Events      
Averages and records for this station are not official NWS values.
T = Trace of Precipitation, MM = Missing Value Source: NWS Daily Summary

Daily Weather History Graph

Daily Weather History Graph

Search for Another Location

Airport or City:

Trip Planner

Search our weather history database for the weather conditions in past years. The results will help you decide how hot, cold, wet, or windy it might be!

Date:

Astronomy

Nov. 01, 2015 Rise Set
Actual Time 7:08 AM CST 5:28 PM CST
Civil Twilight 6:38 AM CST 5:57 PM CST
Nautical Twilight 6:05 AM CST 6:30 PM CST
Astronomical Twilight 5:32 AM CST 7:03 PM CST
Moon 10:27 PM CST (11/1) 12:14 PM CST (11/1)
Length of Visible Light 11h 18m
Length of Day
10h 20m
Waning Gibbous, 68% of the Moon is Illuminated
Nov 1
Waning Gibbous
Nov 3
Last Quarter
Nov 11
New
Nov 19
First Quarter
Nov 25
Full

Hourly Weather History & Observations

Time (CST) Temp. Windchill Dew Point Humidity Pressure Visibility Wind Dir Wind Speed Gust Speed Precip Events Conditions
12:15 AM 43.5 °F 40.1 °F 37.4 °F 79% 29.80 in 10.0 mi SW 5.8 mph - N/A   Scattered Clouds
12:35 AM 42.4 °F 38.8 °F 37.0 °F 81% 29.80 in 10.0 mi SW 5.8 mph - N/A   Clear
12:55 AM 43.5 °F 40.9 °F 37.0 °F 78% 29.80 in 10.0 mi WSW 4.6 mph - N/A   Clear
1:15 AM 45.0 °F 41.8 °F 36.9 °F 73% 29.80 in 10.0 mi SSW 5.8 mph - N/A   Clear
1:35 AM 42.4 °F 38.1 °F 36.0 °F 78% 29.80 in 10.0 mi SSW 6.9 mph - N/A   Clear
1:55 AM 43.2 °F - 36.5 °F 77% 29.80 in 10.0 mi Calm Calm - N/A   Clear
1:15 AM 42.1 °F - 36.3 °F 80% 29.80 in 10.0 mi Calm Calm - N/A   Clear
1:35 AM 43.9 °F 41.3 °F 35.8 °F 73% 29.79 in 10.0 mi South 4.6 mph - N/A   Clear
1:55 AM 41.4 °F 38.4 °F 36.0 °F 81% 29.79 in 10.0 mi SSE 4.6 mph - N/A   Clear
2:15 AM 42.4 °F - 35.6 °F 77% 29.79 in 10.0 mi Calm Calm - N/A   Clear
2:35 AM 43.0 °F - 35.6 °F 75% 29.79 in 10.0 mi Calm Calm - N/A   Clear
2:55 AM 44.6 °F 43.1 °F 35.6 °F 71% 29.79 in 10.0 mi ESE 3.5 mph - N/A   Clear
3:15 AM 42.4 °F - 35.2 °F 76% 29.79 in 10.0 mi Calm Calm - N/A   Clear
3:35 AM 43.0 °F - 35.2 °F 74% 29.79 in 10.0 mi Calm Calm - N/A   Clear
3:55 AM 38.1 °F 32.9 °F 33.4 °F 83% 29.79 in 10.0 mi South 6.9 mph - N/A   Clear
4:15 AM 37.9 °F 33.5 °F 35.6 °F 91% 29.79 in 10.0 mi South 5.8 mph - N/A   Clear
4:35 AM 38.8 °F 34.6 °F 35.4 °F 88% 29.79 in 10.0 mi SSW 5.8 mph - N/A   Clear
4:55 AM 38.8 °F - 34.9 °F 86% 29.79 in 10.0 mi Calm Calm - N/A   Clear
5:15 AM 37.4 °F - 34.5 °F 89% 29.79 in 10.0 mi Calm Calm - N/A   Clear
5:35 AM 40.6 °F 38.6 °F 34.7 °F 79% 29.79 in 10.0 mi SSW 3.5 mph - N/A   Clear
5:55 AM 38.7 °F 36.3 °F 34.3 °F 84% 29.79 in 10.0 mi SSW 3.5 mph - N/A   Clear
6:15 AM 39.7 °F - 35.1 °F 83% 29.79 in 10.0 mi Calm Calm - N/A   Clear
6:35 AM 38.5 °F 35.0 °F 34.2 °F 84% 29.79 in 10.0 mi SSW 4.6 mph - N/A   Clear
6:55 AM 37.0 °F 33.3 °F 34.2 °F 89% 29.78 in 10.0 mi South 4.6 mph - N/A   Clear
7:15 AM 36.5 °F 33.9 °F 34.0 °F 91% 29.78 in 10.0 mi SSW 3.5 mph - N/A   Clear
7:35 AM 36.3 °F 32.5 °F 34.5 °F 93% 29.78 in 10.0 mi South 4.6 mph - N/A   Clear
7:55 AM 37.9 °F 33.5 °F 35.4 °F 91% 29.80 in 10.0 mi SSW 5.8 mph - N/A   Clear
8:15 AM 41.5 °F 37.8 °F 37.9 °F 87% 29.80 in 10.0 mi SW 5.8 mph - N/A   Clear
8:35 AM 44.8 °F 43.3 °F 39.6 °F 82% 29.80 in 10.0 mi SW 3.5 mph - N/A   Clear
8:55 AM 47.7 °F - 42.6 °F 83% 29.80 in 10.0 mi SW 5.8 mph - N/A   Clear
9:15 AM 51.8 °F - 43.7 °F 74% 29.80 in 10.0 mi WSW 5.8 mph - N/A   Clear
9:35 AM 53.8 °F - 43.2 °F 67% 29.80 in 10.0 mi WSW 5.8 mph - N/A   Clear
9:55 AM 57.0 °F - 44.4 °F 63% 29.80 in 10.0 mi WSW 8.1 mph - N/A   Clear
10:15 AM 61.3 °F - 44.8 °F 55% 29.79 in 10.0 mi WSW 8.1 mph - N/A   Clear
10:35 AM 63.5 °F - 43.0 °F 47% 29.79 in 10.0 mi WSW 9.2 mph - N/A   Clear
10:55 AM 66.0 °F - 42.6 °F 43% 29.79 in 10.0 mi WSW 8.1 mph - N/A   Clear
11:15 AM 66.9 °F - 40.8 °F 39% 29.80 in 10.0 mi WSW 10.4 mph - N/A   Clear
11:35 AM 68.2 °F - 40.5 °F 36% 29.78 in 10.0 mi WSW 11.5 mph - N/A   Clear
11:55 AM 69.4 °F - 40.1 °F 34% 29.76 in 10.0 mi SW 8.1 mph - N/A   Clear
12:15 PM 71.2 °F - 39.9 °F 32% 29.76 in 10.0 mi WSW 12.7 mph 16.1 mph N/A   Clear
12:35 PM 71.6 °F - 40.5 °F 32% 29.76 in 10.0 mi West 9.2 mph - N/A   Clear
12:55 PM 72.5 °F - 40.8 °F 32% 29.75 in 10.0 mi WSW 12.7 mph - N/A   Clear
1:15 PM 71.1 °F - 41.0 °F 34% 29.75 in 10.0 mi WSW 8.1 mph - N/A   Clear
1:35 PM 72.5 °F - 41.0 °F 32% 29.74 in 10.0 mi WSW 9.2 mph - N/A   Clear
1:55 PM 73.2 °F - 41.0 °F 31% 29.73 in 10.0 mi West 6.9 mph - N/A   Clear
2:15 PM 72.5 °F - 40.8 °F 32% 29.73 in 10.0 mi WSW 8.1 mph - N/A   Clear
2:35 PM 74.1 °F - 42.3 °F 32% 29.74 in 10.0 mi WSW 5.8 mph - N/A   Clear
2:55 PM 76.3 °F - 39.6 °F 27% 29.74 in 10.0 mi WSW 15.0 mph 18.4 mph N/A   Clear
3:15 PM 75.7 °F - 38.5 °F 26% 29.74 in 10.0 mi WSW 17.3 mph - N/A   Clear
3:35 PM 75.7 °F - 38.1 °F 26% 29.74 in 10.0 mi WSW 11.5 mph 18.4 mph N/A   Clear
3:55 PM 75.7 °F - 38.8 °F 26% 29.74 in 10.0 mi WSW 8.1 mph - N/A   Clear
4:15 PM 74.8 °F - 38.8 °F 27% 29.74 in 10.0 mi WSW 8.1 mph - N/A   Clear
4:35 PM 73.8 °F - 38.8 °F 28% 29.74 in 10.0 mi WSW 6.9 mph - N/A   Clear
4:55 PM 71.1 °F - 39.2 °F 31% 29.74 in 10.0 mi WSW 5.8 mph - N/A   Clear
5:15 PM 68.9 °F - 38.5 °F 33% 29.75 in 10.0 mi WSW 3.5 mph - N/A   Clear
5:35 PM 64.8 °F - 39.2 °F 39% 29.75 in 10.0 mi Calm Calm - N/A   Clear
5:55 PM 65.8 °F - 38.1 °F 36% 29.75 in 10.0 mi Calm Calm - N/A   Clear
6:15 PM 67.3 °F - 37.4 °F 33% 29.76 in 10.0 mi Calm Calm - N/A   Clear
6:35 PM 65.5 °F - 37.4 °F 35% 29.76 in 10.0 mi Calm Calm - N/A   Clear
6:55 PM 64.0 °F - 37.8 °F 38% 29.77 in 10.0 mi SSW 4.6 mph - N/A   Clear
7:15 PM 54.7 °F - 40.5 °F 59% 29.76 in 10.0 mi South 5.8 mph - N/A   Clear
7:35 PM 56.1 °F - 39.7 °F 54% 29.77 in 10.0 mi South 5.8 mph - N/A   Clear
7:55 PM 59.5 °F - 38.3 °F 45% 29.77 in 10.0 mi SSW 5.8 mph - N/A   Clear
8:15 PM 53.4 °F - 40.3 °F 61% 29.77 in 10.0 mi South 5.8 mph - N/A   Clear
8:35 PM 53.2 °F - 39.7 °F 60% 29.77 in 10.0 mi South 6.9 mph - N/A   Clear
8:55 PM 53.2 °F - 39.7 °F 60% 29.76 in 10.0 mi SSW 4.6 mph - N/A   Clear
9:15 PM 50.7 °F - 39.6 °F 66% 29.76 in 10.0 mi SSW 6.9 mph - N/A   Clear
9:35 PM 51.6 °F - 39.6 °F 63% 29.76 in 10.0 mi SSW 4.6 mph - N/A   Clear
9:55 PM 51.3 °F - 40.3 °F 66% 29.75 in 10.0 mi SSW 6.9 mph - N/A   Clear
10:15 PM 52.2 °F - 39.7 °F 63% 29.75 in 10.0 mi SSW 6.9 mph - N/A   Clear
10:35 PM 50.5 °F - 40.1 °F 67% 29.75 in 10.0 mi SSW 5.8 mph - N/A   Clear
10:55 PM 52.3 °F - 39.6 °F 62% 29.75 in 10.0 mi SW 6.9 mph - N/A   Clear